WB6TTB Weather Reports


time (UTC)temp
C
wind
direction
speed
KPH
gust
KPH
rain 1hr
cm
rain 24hr
cm
rain mn
cm
humidity
%
barometer
mb
20260506123604 11 0 0.0 0.0 0.00 0.00 0.00 91 1018.9
20260506122404 11 0 0.0 0.0 0.00 0.00 0.00 90 1018.8
20260506110603 11 0 0.0 0.0 0.00 0.00 0.00 91 1018.3
20260506104203 11 0 0.0 0.0 0.00 0.00 0.00 91 1018.2
20260506101204 11 0 0.0 0.0 0.00 0.00 0.00 90 1018.1
20260506093004 11 0 0.0 0.0 0.00 0.00 0.00 90 1018.2
20260506084803 11 0 0.0 0.0 0.00 0.03 0.00 90 1018.0
20260506071204 11 0 0.0 0.0 0.00 0.23 0.00 90 1017.7
20260506061803 11 0 0.0 0.0 0.00 0.23 0.23 92 1017.3
20260506044204 11 0 0.0 0.0 0.00 0.41 0.23 93 1016.7
20260506040003 11 0 0.0 0.0 0.00 0.56 0.23 92 1016.2
20260506031204 12 0 0.0 0.0 0.00 0.58 0.23 92 1015.5
20260506025404 12 0 0.0 0.0 0.00 0.58 0.23 91 1015.3
20260506015403 13 0 0.0 0.0 0.00 0.58 0.23 89 1014.9
20260506011203 14 0 0.0 0.0 0.00 0.58 0.23 86 1014.9
20260505234203 13 0 0.0 0.0 0.00 0.58 0.23 87 1014.6
20260505201803 13 0 0.0 0.0 0.00 0.58 0.23 89 1015.1
20260505190004 14 0 0.0 0.0 0.00 0.58 0.23 88 1015.1
20260505180003 13 0 0.0 0.0 0.00 0.58 0.23 91 1015.0
20260505172404 13 0 0.0 0.0 0.00 0.58 0.23 95 1014.7
20260505124804 10 0 0.0 0.0 0.00 0.58 0.23 96 1013.4